UZB1T UZTT-UZTT

Flight info

Callsign UZB1T
Flight time 0h 39m
Altitude 24000
Route BAMGU2A BAMGU DCT KUFIM
Aircraft B763/H-SDE3FGHIM3RWXY/LB1

Departure

Time 2026-04-28 07:04
Airport Tashkent International Airport (UZTT)

Arrival

Time 2026-04-28 07:43
Airport Tashkent International Airport (UZTT)
Time Latitude Longitude Altitude Speed Heading
2026-04-28 06:29 41.26488 69.28147 1427 ft 0 kts 308°
2026-04-28 06:45 41.26485 69.28153 1426 ft 2 kts 308°
2026-04-28 06:45 41.26476 69.28168 1427 ft 2 kts 308°
2026-04-28 06:45 41.26466 69.28184 1427 ft 2 kts 308°
2026-04-28 06:46 41.26457 69.28200 1427 ft 2 kts 308°
2026-04-28 06:46 41.26448 69.28215 1427 ft 2 kts 308°
2026-04-28 06:46 41.26438 69.28236 1427 ft 2 kts 269°
2026-04-28 06:46 41.26443 69.28253 1427 ft 2 kts 230°
2026-04-28 06:47 41.26450 69.28270 1427 ft 2 kts 257°
2026-04-28 06:47 41.26453 69.28289 1427 ft 2 kts 266°
2026-04-28 06:47 41.26453 69.28309 1427 ft 2 kts 273°
2026-04-28 06:47 41.26451 69.28329 1427 ft 2 kts 283°
2026-04-28 06:48 41.26447 69.28347 1427 ft 2 kts 291°
2026-04-28 06:48 41.26440 69.28365 1427 ft 2 kts 301°
2026-04-28 06:48 41.26432 69.28382 1427 ft 2 kts 303°
2026-04-28 06:48 41.26422 69.28396 1427 ft 2 kts 322°
2026-04-28 06:49 41.26411 69.28408 1427 ft 2 kts 317°
2026-04-28 06:49 41.26400 69.28422 1427 ft 2 kts 317°
2026-04-28 06:49 41.26389 69.28435 1427 ft 2 kts 317°
2026-04-28 06:49 41.26378 69.28449 1427 ft 2 kts 316°
2026-04-28 06:50 41.26367 69.28462 1427 ft 2 kts 316°
2026-04-28 06:50 41.26356 69.28476 1427 ft 2 kts 316°
2026-04-28 06:50 41.26345 69.28490 1427 ft 2 kts 316°
2026-04-28 06:50 41.26334 69.28503 1427 ft 2 kts 316°
2026-04-28 06:51 41.26323 69.28516 1427 ft 2 kts 316°
2026-04-28 06:51 41.26312 69.28530 1427 ft 2 kts 319°
2026-04-28 06:51 41.26300 69.28543 1427 ft 2 kts 319°
2026-04-28 06:51 41.26289 69.28556 1427 ft 2 kts 319°
2026-04-28 06:52 41.26278 69.28569 1427 ft 2 kts 319°
2026-04-28 06:52 41.26267 69.28582 1427 ft 2 kts 319°
2026-04-28 06:52 41.26255 69.28595 1427 ft 2 kts 319°
2026-04-28 06:52 41.26244 69.28608 1427 ft 2 kts 319°
2026-04-28 06:53 41.26233 69.28621 1427 ft 2 kts 319°
2026-04-28 06:53 41.26222 69.28634 1427 ft 2 kts 317°
2026-04-28 06:53 41.26211 69.28647 1427 ft 2 kts 317°
2026-04-28 06:53 41.26200 69.28661 1427 ft 2 kts 317°
2026-04-28 06:54 41.26189 69.28674 1427 ft 2 kts 317°
2026-04-28 06:54 41.26179 69.28690 1427 ft 2 kts 287°
2026-04-28 06:54 41.26178 69.28709 1427 ft 2 kts 263°
2026-04-28 06:54 41.26179 69.28728 1427 ft 2 kts 265°
2026-04-28 06:55 41.26180 69.28745 1427 ft 0 kts 267°
2026-04-28 06:57 41.26180 69.28740 1427 ft 3 kts 267°
2026-04-28 06:57 41.26181 69.28664 1427 ft 11 kts 273°
2026-04-28 06:57 41.26187 69.28550 1427 ft 13 kts 274°
2026-04-28 06:58 41.26191 69.28412 1427 ft 16 kts 264°
2026-04-28 06:58 41.26176 69.28251 1427 ft 18 kts 261°
2026-04-28 06:58 41.26156 69.28072 1427 ft 20 kts 261°
2026-04-28 06:58 41.26135 69.27874 1427 ft 22 kts 262°
2026-04-28 06:59 41.26111 69.27654 1427 ft 25 kts 261°
2026-04-28 06:59 41.26085 69.27426 1427 ft 18 kts 263°
2026-04-28 06:59 41.26070 69.27305 1426 ft 7 kts 251°
2026-04-28 06:59 41.26053 69.27247 1426 ft 7 kts 246°
2026-04-28 07:00 41.26019 69.27149 1426 ft 14 kts 245°
2026-04-28 07:00 41.25973 69.27017 1426 ft 16 kts 245°
2026-04-28 07:00 41.25921 69.26867 1426 ft 19 kts 245°
2026-04-28 07:00 41.25858 69.26701 1426 ft 18 kts 247°
2026-04-28 07:01 41.25814 69.26570 1426 ft 9 kts 245°
2026-04-28 07:01 41.25799 69.26526 1426 ft 0 kts 245°
2026-04-28 07:01 41.25797 69.26521 1426 ft 2 kts 245°
2026-04-28 07:01 41.25769 69.26447 1426 ft 12 kts 239°
2026-04-28 07:02 41.25731 69.26404 1426 ft 7 kts 204°
2026-04-28 07:02 41.25679 69.26414 1426 ft 8 kts 140°
2026-04-28 07:02 41.25666 69.26488 1426 ft 9 kts 83°
2026-04-28 07:02 41.25667 69.26498 1426 ft 0 kts 81°
2026-04-28 07:03 41.25670 69.26522 1426 ft 17 kts 81°
2026-04-28 07:03 41.25720 69.26967 1426 ft 79 kts 82°
2026-04-28 07:03 41.25830 69.27982 1427 ft 141 kts 81°
2026-04-28 07:04 41.25975 69.29463 1703 ft 176 kts 85°
2026-04-28 07:04 41.26111 69.31077 2538 ft 180 kts 83°
2026-04-28 07:04 41.26274 69.32692 3443 ft 180 kts 81°
2026-04-28 07:04 41.26435 69.34302 4355 ft 177 kts 81°
2026-04-28 07:05 41.26612 69.35880 5134 ft 182 kts 81°
2026-04-28 07:05 41.26825 69.37633 5745 ft 199 kts 79°
2026-04-28 07:05 41.27041 69.39429 6584 ft 204 kts 81°
2026-04-28 07:05 41.27237 69.41235 7583 ft 197 kts 81°
2026-04-28 07:06 41.27459 69.43027 8316 ft 205 kts 79°
2026-04-28 07:06 41.27687 69.44981 8785 ft 230 kts 81°
2026-04-28 07:06 41.27910 69.47132 9595 ft 241 kts 81°
2026-04-28 07:06 41.28143 69.49271 10785 ft 235 kts 81°
2026-04-28 07:07 41.28219 69.51401 11688 ft 240 kts 101°
2026-04-28 07:07 41.27497 69.53368 12538 ft 247 kts 133°
2026-04-28 07:07 41.26041 69.54567 13427 ft 252 kts 164°
2026-04-28 07:07 41.24342 69.54969 14305 ft 254 kts 170°
2026-04-28 07:08 41.22590 69.55341 15157 ft 257 kts 170°
2026-04-28 07:08 41.20756 69.55371 15503 ft 283 kts 192°
2026-04-28 07:08 41.18860 69.54227 15674 ft 316 kts 216°
2026-04-28 07:08 41.17265 69.52090 15879 ft 347 kts 234°
2026-04-28 07:09 41.16089 69.49123 16093 ft 379 kts 251°
2026-04-28 07:09 41.15602 69.45673 16912 ft 390 kts 268°
2026-04-28 07:09 41.15823 69.42089 17985 ft 394 kts 278°
2026-04-28 07:09 41.16056 69.38499 19004 ft 398 kts 269°
2026-04-28 07:10 41.15942 69.34817 19951 ft 402 kts 266°
2026-04-28 07:10 41.15699 69.31122 19939 ft 406 kts 263°
2026-04-28 07:10 41.15379 69.27438 19933 ft 393 kts 262°
2026-04-28 07:10 41.15034 69.23914 19933 ft 385 kts 262°
2026-04-28 07:11 41.14671 69.20413 19941 ft 387 kts 261°
2026-04-28 07:11 41.14287 69.16843 19940 ft 391 kts 261°
2026-04-28 07:11 41.13895 69.13265 19934 ft 392 kts 261°
2026-04-28 07:11 41.13500 69.09694 19932 ft 392 kts 261°
2026-04-28 07:12 41.13097 69.06092 20194 ft 406 kts 261°
2026-04-28 07:12 41.12687 69.02427 21636 ft 399 kts 261°
2026-04-28 07:12 41.12206 68.98885 22814 ft 396 kts 253°
2026-04-28 07:12 41.11139 68.95545 23805 ft 395 kts 239°
2026-04-28 07:13 41.09543 68.92588 23937 ft 402 kts 229°
2026-04-28 07:13 41.07556 68.90079 23923 ft 392 kts 218°
2026-04-28 07:13 41.05244 68.88250 23921 ft 381 kts 202°
2026-04-28 07:13 41.02687 68.87328 23932 ft 381 kts 187°
2026-04-28 07:14 41.00037 68.87347 23934 ft 388 kts 172°
2026-04-28 07:14 40.97359 68.87917 23927 ft 389 kts 176°
2026-04-28 07:14 40.94677 68.87908 23928 ft 387 kts 185°
2026-04-28 07:14 40.92002 68.87479 23514 ft 397 kts 190°
2026-04-28 07:15 40.89251 68.86802 22726 ft 402 kts 192°
2026-04-28 07:15 40.86532 68.86028 21958 ft 403 kts 193°
2026-04-28 07:15 40.83789 68.85190 21187 ft 403 kts 194°
2026-04-28 07:15 40.81083 68.84330 20426 ft 403 kts 194°
2026-04-28 07:16 40.78369 68.83451 19661 ft 403 kts 194°
2026-04-28 07:16 40.75691 68.82574 18813 ft 393 kts 194°
2026-04-28 07:16 40.73093 68.81720 18046 ft 378 kts 194°
2026-04-28 07:16 40.70571 68.80888 17295 ft 369 kts 194°
2026-04-28 07:17 40.68105 68.80075 16554 ft 368 kts 194°
2026-04-28 07:17 40.65638 68.79263 15802 ft 368 kts 194°
2026-04-28 07:17 40.63139 68.78446 15052 ft 366 kts 194°
2026-04-28 07:17 40.60698 68.77644 14319 ft 362 kts 194°
2026-04-28 07:18 40.58284 68.76848 13601 ft 358 kts 194°
2026-04-28 07:18 40.55883 68.76054 12985 ft 354 kts 194°
2026-04-28 07:18 40.53514 68.75272 12383 ft 354 kts 194°
2026-04-28 07:18 40.51125 68.74481 11770 ft 351 kts 194°
2026-04-28 07:19 40.48778 68.73701 11157 ft 347 kts 194°
2026-04-28 07:19 40.46489 68.72784 10553 ft 346 kts 204°
2026-04-28 07:19 40.44467 68.71117 10130 ft 340 kts 223°
2026-04-28 07:19 40.43022 68.68816 10051 ft 310 kts 242°
2026-04-28 07:20 40.42337 68.66299 9905 ft 288 kts 264°
2026-04-28 07:20 40.42477 68.63735 9284 ft 285 kts 290°
2026-04-28 07:20 40.43499 68.61562 8897 ft 276 kts 320°
2026-04-28 07:20 40.45113 68.60390 8953 ft 269 kts 348°
2026-04-28 07:21 40.47010 68.60369 9004 ft 276 kts 16°
2026-04-28 07:21 40.48729 68.61449 9045 ft 275 kts 34°
2026-04-28 07:21 40.50314 68.62843 9047 ft 275 kts 34°
2026-04-28 07:22 40.53727 68.65052 9044 ft 275 kts 16°
2026-04-28 07:22 40.55600 68.65613 9055 ft 275 kts 11°
2026-04-28 07:22 40.57485 68.66003 9065 ft 275 kts
2026-04-28 07:22 40.59402 68.66294 9061 ft 276 kts
2026-04-28 07:23 40.61299 68.66522 9058 ft 275 kts
2026-04-28 07:23 40.63215 68.66718 9063 ft 275 kts
2026-04-28 07:23 40.65104 68.66894 9068 ft 274 kts
2026-04-28 07:23 40.67020 68.67062 9074 ft 273 kts
2026-04-28 07:24 40.68913 68.67223 9067 ft 275 kts
2026-04-28 07:24 40.70843 68.67384 9075 ft 275 kts
2026-04-28 07:24 40.72736 68.67541 9069 ft 275 kts
2026-04-28 07:24 40.74668 68.67699 9028 ft 277 kts
2026-04-28 07:25 40.76580 68.67856 8910 ft 278 kts
2026-04-28 07:25 40.78517 68.68014 8750 ft 276 kts
2026-04-28 07:25 40.80415 68.68234 8546 ft 274 kts 13°
2026-04-28 07:25 40.82161 68.69182 8413 ft 269 kts 29°
2026-04-28 07:26 40.83816 68.70370 8312 ft 270 kts 29°
2026-04-28 07:26 40.85461 68.71550 8196 ft 271 kts 30°
2026-04-28 07:26 40.87116 68.72759 8075 ft 271 kts 30°
2026-04-28 07:26 40.88763 68.73970 7958 ft 270 kts 30°
2026-04-28 07:27 40.90405 68.75183 7839 ft 269 kts 30°
2026-04-28 07:27 40.92022 68.76380 7725 ft 269 kts 30°
2026-04-28 07:27 40.93656 68.77593 7602 ft 270 kts 30°
2026-04-28 07:27 40.95300 68.78815 7479 ft 269 kts 30°
2026-04-28 07:28 40.96923 68.80021 7358 ft 268 kts 30°
2026-04-28 07:28 40.98565 68.81244 7249 ft 269 kts 30°
2026-04-28 07:28 41.00189 68.82444 7122 ft 269 kts 27°
2026-04-28 07:28 41.01970 68.83088 7010 ft 269 kts
2026-04-28 07:29 41.03775 68.82528 6997 ft 268 kts 332°
2026-04-28 07:29 41.05236 68.81007 7001 ft 272 kts 317°
2026-04-28 07:29 41.06627 68.79247 6980 ft 274 kts 317°
2026-04-28 07:29 41.07977 68.77496 6976 ft 272 kts 316°
2026-04-28 07:30 41.09314 68.75760 6976 ft 270 kts 321°
2026-04-28 07:30 41.10957 68.74542 6996 ft 269 kts 339°
2026-04-28 07:30 41.12713 68.73626 6982 ft 270 kts 339°
2026-04-28 07:30 41.14464 68.72704 6977 ft 269 kts 339°
2026-04-28 07:31 41.16193 68.71808 6978 ft 268 kts 340°
2026-04-28 07:31 41.17951 68.70905 6976 ft 269 kts 340°
2026-04-28 07:31 41.19765 68.70414 6977 ft 268 kts
2026-04-28 07:31 41.21620 68.70528 6981 ft 269 kts
2026-04-28 07:32 41.23498 68.70651 6970 ft 269 kts
2026-04-28 07:32 41.25371 68.70791 6970 ft 268 kts
2026-04-28 07:32 41.27227 68.70938 6970 ft 268 kts
2026-04-28 07:32 41.29066 68.71251 6963 ft 267 kts 19°
2026-04-28 07:33 41.30754 68.72305 6982 ft 267 kts 28°
2026-04-28 07:33 41.32396 68.73445 6972 ft 268 kts 28°
2026-04-28 07:33 41.34044 68.74600 6966 ft 266 kts 28°
2026-04-28 07:33 41.35666 68.75753 6971 ft 266 kts 28°
2026-04-28 07:34 41.37287 68.76938 6968 ft 267 kts 34°
2026-04-28 07:34 41.38624 68.78676 6993 ft 268 kts 52°
2026-04-28 07:34 41.39752 68.80637 6980 ft 270 kts 52°
2026-04-28 07:34 41.40897 68.82619 6973 ft 268 kts 53°
2026-04-28 07:35 41.41960 68.84647 6850 ft 272 kts 64°
2026-04-28 07:35 41.42382 68.87098 6630 ft 270 kts 92°
2026-04-28 07:35 41.41895 68.89445 6462 ft 268 kts 120°
2026-04-28 07:35 41.40601 68.91230 6307 ft 270 kts 149°
2026-04-28 07:36 41.38837 68.92002 6138 ft 272 kts 173°
2026-04-28 07:36 41.36941 68.92345 5912 ft 273 kts 168°
2026-04-28 07:36 41.35108 68.92956 5660 ft 270 kts 163°
2026-04-28 07:36 41.33336 68.93672 5416 ft 267 kts 161°
2026-04-28 07:37 41.31578 68.94461 5187 ft 264 kts 160°
2026-04-28 07:37 41.29863 68.95273 4976 ft 261 kts 160°
2026-04-28 07:37 41.28171 68.96098 4794 ft 256 kts 159°
2026-04-28 07:37 41.26517 68.96915 4578 ft 253 kts 159°
2026-04-28 07:38 41.24890 68.97774 4310 ft 251 kts 151°
2026-04-28 07:38 41.23612 68.99299 4050 ft 247 kts 121°
2026-04-28 07:38 41.23152 69.01352 4023 ft 225 kts 89°
2026-04-28 07:38 41.23216 69.03371 4078 ft 220 kts 86°
2026-04-28 07:39 41.23306 69.05409 3970 ft 216 kts 83°
2026-04-28 07:39 41.23515 69.07294 3996 ft 198 kts 79°
2026-04-28 07:39 41.23728 69.09036 3811 ft 188 kts 80°
2026-04-28 07:39 41.23908 69.10677 3582 ft 169 kts 81°
2026-04-28 07:40 41.24068 69.12130 3361 ft 151 kts 81°
2026-04-28 07:40 41.24216 69.13441 3140 ft 137 kts 80°
2026-04-28 07:40 41.24354 69.14674 2969 ft 134 kts 81°
2026-04-28 07:40 41.24492 69.15913 2836 ft 138 kts 81°
2026-04-28 07:41 41.24634 69.17182 2676 ft 139 kts 81°
2026-04-28 07:41 41.24773 69.18439 2506 ft 138 kts 82°
2026-04-28 07:41 41.24912 69.19708 2340 ft 139 kts 82°
2026-04-28 07:41 41.25054 69.20978 2163 ft 138 kts 82°
2026-04-28 07:42 41.25189 69.22230 2002 ft 137 kts 82°
2026-04-28 07:42 41.25343 69.23494 1817 ft 139 kts 82°
2026-04-28 07:42 41.25481 69.24753 1650 ft 138 kts 82°
2026-04-28 07:42 41.25619 69.26003 1465 ft 135 kts 83°
2026-04-28 07:43 41.25734 69.27131 1426 ft 98 kts 82°
2026-04-28 07:43 41.25811 69.27788 1427 ft 66 kts 82°
2026-04-28 07:43 41.25871 69.28351 1427 ft 54 kts 82°
2026-04-28 07:43 41.25913 69.28732 1427 ft 30 kts 81°
2026-04-28 07:44 41.25935 69.28873 1427 ft 7 kts 60°
2026-04-28 07:44 41.25986 69.28902 1427 ft 9 kts 352°
2026-04-28 07:44 41.26035 69.28861 1427 ft 3 kts 318°
2026-04-28 07:44 41.26037 69.28859 1427 ft 0 kts 318°
2026-04-28 07:45 41.26054 69.28838 1427 ft 6 kts 318°
2026-04-28 07:45 41.26095 69.28789 1427 ft 9 kts 316°
2026-04-28 07:45 41.26151 69.28721 1427 ft 10 kts 318°
2026-04-28 07:46 41.26179 69.28674 1427 ft 6 kts 291°
2026-04-28 07:46 41.26184 69.28603 1427 ft 9 kts 273°
2026-04-28 07:46 41.26189 69.28504 1427 ft 12 kts 274°
2026-04-28 07:46 41.26191 69.28378 1427 ft 15 kts 263°
2026-04-28 07:47 41.26173 69.28226 1427 ft 17 kts 261°
2026-04-28 07:47 41.26155 69.28050 1427 ft 20 kts 262°
2026-04-28 07:47 41.26132 69.27849 1426 ft 23 kts 261°
2026-04-28 07:47 41.26108 69.27629 1426 ft 25 kts 261°
2026-04-28 07:48 41.26081 69.27391 1426 ft 23 kts 262°
2026-04-28 07:48 41.26065 69.27284 1426 ft 10 kts 249°
2026-04-28 07:48 41.26031 69.27185 1426 ft 12 kts 245°
2026-04-28 07:48 41.26004 69.27106 1426 ft 8 kts 244°
2026-04-28 07:49 41.25993 69.27057 1426 ft 3 kts 272°
2026-04-28 07:49 41.26010 69.27024 1426 ft 6 kts 319°
2026-04-28 07:49 41.26028 69.27011 1426 ft 1 kts 334°
2026-04-28 07:49 41.26031 69.27009 1426 ft 0 kts 334°